| time (UTC) | temp C | wind direction | speed KPH | gust KPH | rain 1hr cm | rain 24hr cm | rain mn cm | humidity % | barometer mb |
| 20260503021500 | 12 | 174 | 4.8 | 8.0 | 0.00 | 0.00 | 0.00 | 59 | 1008.1 |
| 20260503020001 | 12 | 180 | 4.8 | 4.8 | 0.00 | 0.00 | 0.00 | 58 | 1008.4 |
| 20260503014501 | 12 | 180 | 4.8 | 4.8 | 0.00 | 0.00 | 0.00 | 58 | 1008.4 |
| 20260503013002 | 12 | 175 | 4.8 | 6.4 | 0.00 | 0.00 | 0.00 | 58 | 1008.4 |
| 20260503011501 | 12 | 174 | 3.2 | 4.8 | 0.00 | 0.00 | 0.00 | 57 | 1008.4 |
| 20260503010001 | 12 | 157 | 1.6 | 4.8 | 0.00 | 0.00 | 0.00 | 57 | 1008.4 |
| 20260503004501 | 12 | 146 | 3.2 | 3.2 | 0.00 | 0.00 | 0.00 | 56 | 1008.4 |
| 20260503003001 | 13 | 167 | 3.2 | 4.8 | 0.00 | 0.00 | 0.00 | 54 | 1008.4 |
| 20260503001502 | 13 | 173 | 4.8 | 4.8 | 0.00 | 0.00 | 0.00 | 54 | 1008.8 |
| 20260503000002 | 13 | 164 | 1.6 | 4.8 | 0.00 | 0.00 | 0.00 | 56 | 1008.8 |
| 20260502234501 | 13 | 170 | 3.2 | 4.8 | 0.00 | 0.00 | 0.00 | 55 | 1008.8 |
| 20260502233002 | 13 | 146 | 1.6 | 3.2 | 0.00 | 0.00 | 0.00 | 56 | 1008.8 |
| 20260502231501 | 13 | 121 | 0.0 | 0.0 | 0.00 | 0.00 | 0.00 | 55 | 1008.8 |
| 20260502230002 | 15 | 162 | 3.2 | 4.8 | 0.00 | 0.00 | 0.00 | 53 | 1008.8 |
| 20260502224501 | 15 | 162 | 1.6 | 3.2 | 0.00 | 0.00 | 0.00 | 54 | 1008.8 |
| 20260502223002 | 15 | 148 | 1.6 | 1.6 | 0.00 | 0.00 | 0.00 | 54 | 1008.8 |
| 20260502221501 | 13 | 156 | 1.6 | 1.6 | 0.00 | 0.00 | 0.00 | 56 | 1008.8 |
| 20260502220001 | 15 | 146 | 0.0 | 1.6 | 0.00 | 0.00 | 0.00 | 55 | 1009.1 |
| 20260502214501 | 15 | 127 | 0.0 | 0.0 | 0.00 | 0.00 | 0.00 | 54 | 1009.1 |
| 20260502213002 | 15 | 155 | 1.6 | 1.6 | 0.00 | 0.00 | 0.00 | 53 | 1009.1 |
| 20260502211501 | 15 | 146 | 0.0 | 0.0 | 0.00 | 0.00 | 0.00 | 53 | 1009.1 |
| 20260502210001 | 15 | 144 | 1.6 | 1.6 | 0.00 | 0.00 | 0.00 | 52 | 1009.1 |
| 20260502204501 | 13 | 126 | 0.0 | 0.0 | 0.00 | 0.00 | 0.00 | 54 | 1009.1 |
| 20260502203002 | 13 | 118 | 0.0 | 0.0 | 0.00 | 0.00 | 0.00 | 55 | 1009.1 |
| 20260502201501 | 15 | 116 | 0.0 | 0.0 | 0.00 | 0.00 | 0.00 | 54 | 1009.1 |
| 20260502200002 | 15 | 118 | 0.0 | 0.0 | 0.00 | 0.00 | 0.00 | 52 | 1009.1 |
| 20260502194502 | 16 | 132 | 0.0 | 1.6 | 0.00 | 0.00 | 0.00 | 50 | 1009.4 |
| 20260502193001 | 16 | 143 | 1.6 | 1.6 | 0.00 | 0.00 | 0.00 | 47 | 1009.4 |
| 20260502191501 | 17 | 154 | 0.0 | 0.0 | 0.00 | 0.00 | 0.00 | 48 | 1009.1 |
| 20260502190001 | 17 | 140 | 1.6 | 1.6 | 0.00 | 0.00 | 0.00 | 46 | 1009.4 |
| 20260502184501 | 18 | 139 | 0.0 | 0.0 | 0.00 | 0.00 | 0.00 | 44 | 1009.4 |
| 20260502183001 | 20 | 154 | 1.6 | 3.2 | 0.00 | 0.00 | 0.00 | 43 | 1009.1 |
| 20260502181502 | 20 | 152 | 1.6 | 1.6 | 0.00 | 0.00 | 0.00 | 41 | 1009.1 |
| 20260502163002 | 25 | 226 | 1.6 | 3.2 | 0.00 | 0.00 | 0.00 | 31 | 1009.8 |
| 20260502161501 | 25 | 194 | 4.8 | 6.4 | 0.00 | 0.00 | 0.00 | 31 | 1010.5 |
| 20260502151501 | 25 | 164 | 4.8 | 6.4 | 0.00 | 0.00 | 0.00 | 29 | 1010.8 |
| 20260502123004 | 26 | 220 | 4.8 | 4.8 | 0.00 | 0.00 | 0.00 | 27 | 1012.5 |
| 20260502121501 | 25 | 189 | 4.8 | 9.7 | 0.00 | 0.00 | 0.00 | 29 | 1013.2 |
| 20260502114501 | 26 | 257 | 6.4 | 8.0 | 0.00 | 0.00 | 0.00 | 29 | 1013.5 |
| 20260502113001 | 26 | 188 | 6.4 | 8.0 | 0.00 | 0.00 | 0.00 | 28 | 1013.5 |
| 20260502111501 | 25 | 134 | 4.8 | 4.8 | 0.00 | 0.00 | 0.00 | 28 | 1013.5 |
| 20260502110001 | 25 | 149 | 9.7 | 11.3 | 0.00 | 0.00 | 0.00 | 28 | 1013.8 |
| 20260502104501 | 25 | 163 | 6.4 | 8.0 | 0.00 | 0.00 | 0.00 | 30 | 1014.2 |
| 20260502103001 | 26 | 157 | 1.6 | 3.2 | 0.00 | 0.00 | 0.00 | 28 | 1014.2 |
| 20260502101500 | 25 | 233 | 6.4 | 8.0 | 0.00 | 0.00 | 0.00 | 30 | 1014.2 |
| 20260502091501 | 23 | 90 | 3.2 | 4.8 | 0.00 | 0.00 | 0.00 | 31 | 1014.5 |
| 20260502071501 | 20 | 162 | 1.6 | 1.6 | 0.00 | 0.00 | 0.00 | 40 | 1014.9 |
| 20260502070001 | 18 | 169 | 1.6 | 3.2 | 0.00 | 0.00 | 0.00 | 44 | 1015.2 |
| 20260502064501 | 17 | 201 | 3.2 | 4.8 | 0.00 | 0.00 | 0.00 | 43 | 1015.2 |
| 20260502063001 | 16 | 182 | 3.2 | 3.2 | 0.00 | 0.00 | 0.00 | 43 | 1015.2 |
| 20260502061501 | 15 | 148 | 1.6 | 1.6 | 0.00 | 0.00 | 0.00 | 49 | 1015.2 |
| 20260502060001 | 15 | 128 | 0.0 | 0.0 | 0.00 | 0.00 | 0.00 | 52 | 1015.2 |
| 20260502054502 | 13 | 174 | 1.6 | 3.2 | 0.00 | 0.00 | 0.00 | 56 | 1015.2 |
| 20260502053001 | 12 | 156 | 1.6 | 3.2 | 0.00 | 0.00 | 0.00 | 61 | 1015.2 |
| 20260502051501 | 10 | 150 | 1.6 | 3.2 | 0.00 | 0.00 | 0.00 | 63 | 1015.2 |
| 20260502050000 | 10 | 164 | 1.6 | 1.6 | 0.00 | 0.00 | 0.00 | 64 | 1015.2 |
| 20260502044501 | 8 | 125 | 0.0 | 0.0 | 0.00 | 0.00 | 0.00 | 69 | 1015.2 |
| 20260502043001 | 8 | 128 | 0.0 | 0.0 | 0.00 | 0.00 | 0.00 | 70 | 1015.2 |
| 20260502041501 | 7 | 130 | 0.0 | 0.0 | 0.00 | 0.00 | 0.00 | 70 | 1015.2 |
| 20260502040002 | 7 | 130 | 0.0 | 0.0 | 0.00 | 0.00 | 0.00 | 71 | 1015.2 |
| 20260502034501 | 7 | 129 | 0.0 | 0.0 | 0.00 | 0.00 | 0.00 | 73 | 1015.2 |
| 20260502033001 | 7 | 127 | 0.0 | 0.0 | 0.00 | 0.00 | 0.00 | 71 | 1015.2 |
| 20260502031501 | 7 | 129 | 0.0 | 0.0 | 0.00 | 0.00 | 0.00 | 70 | 1015.2 |
| 20260502030001 | 8 | 124 | 0.0 | 0.0 | 0.00 | 0.00 | 0.00 | 70 | 1015.2 |
| 20260502024501 | 8 | 129 | 0.0 | 0.0 | 0.00 | 0.00 | 0.00 | 69 | 1015.2 |
| 20260502023001 | 8 | 135 | 1.6 | 1.6 | 0.00 | 0.00 | 0.00 | 66 | 1015.2 |